Wind_Speed
4 5 4 3 4 4 4 4 5 6 6 6 6 6 6 5 4 5 6 6 6 5 5 4 3 2 2 2 2 3 3 3 3 3 3 3 3 2 2 2 2 2 2
3 4 3 3 3 3 4 5 5 6 6 6 5 5 5 4 4 4 5 4 5 5 4 4 3 2 2 2 2 2 3 3 2 2 2 2 1 1 1 2 3 3 3
3 3 2 4 4 3 4 5 5 5 5 5 4 4 5 4 3 4 4 4 4 4 3 3 3 2 2 2 1 1 1 1 1 0 1 1 1 2 2 2 3 4 3
3 3 2 3 3 3 3 4 4 4 4 4 4 4 4 4 3 3 3 3 4 4 3 3 3 2 2 2 2 2 3 1 1 1 1 2 2 2 2 2 3 3 3
4 3 4 4 4 4 4 5 5 5 4 4 3 3 4 4 3 3 3 3 4 4 3 3 2 2 2 2 2 3 3 2 2 2 3 3 2 2 2 2 3 3 3
4 4 4 4 4 4 4 5 5 5 5 4 4 4 4 4 4 3 3 4 4 4 3 4 3 2 2 2 2 2 2 2 3 3 1 2 2 2 2 2 3 3 3
6 5 4 5 5 5 5 5 5 5 5 4 4 4 4 4 4 4 3 4 4 4 3 3 3 2 2 3 3 3 3 3 3 3 2 0 1 2 2 2 3 4 3
6 5 4 5 5 6 6 5 5 5 4 4 4 4 4 4 3 3 3 4 4 4 4 3 3 3 3 3 4 4 4 4 4 3 3 2 1 1 1 1 2 2 2
7 6 5 5 6 6 6 5 5 4 4 4 4 4 4 4 3 2 4 4 4 4 4 4 4 3 3 3 4 4 4 4 4 4 3 2 1 1 1 1 1 1 2
8 8 7 7 7 7 6 6 5 5 4 4 4 4 4 4 4 3 4 4 4 4 4 4 4 4 4 3 3 3 4 4 4 4 3 2 1 0 0 1 1 1 2
8 8 8 8 7 7 7 6 6 5 5 5 4 4 3 4 4 4 4 4 4 3 4 4 3 4 4 4 3 3 4 4 4 4 3 3 3 2 2 2 2 2 2
8 8 8 8 7 7 7 7 6 5 5 5 4 4 4 4 5 5 5 5 5 4 3 4 4 4 4 4 4 4 4 4 5 4 4 3 3 3 3 3 3 3 3
10 9 9 8 7 7 7 7 7 6 6 5 5 4 4 4 5 5 5 5 5 4 4 4 4 4 4 4 4 4 4 5 5 5 4 4 4 4 4 4 4 4 4
11 10 9 9 8 8 7 6 6 6 6 5 5 5 5 5 5 5 5 5 5 5 5 5 5 4 4 4 4 4 4 5 5 5 5 5 5 5 4 4 4 4 4
12 11 11 10 10 8 7 7 6 6 6 5 5 6 5 6 5 5 5 6 5 5 5 5 5 5 5 5 4 4 4 5 4 5 4 5 6 5 4 4 4 5 5
12 12 11 10 10 10 9 8 7 6 6 6 6 6 6 6 5 5 5 5 5 5 6 6 5 5 5 4 4 4 5 5 5 4 4 5 6 6 6 5 5 5 5
11 11 11 11 11 11 10 10 8 7 7 7 7 7 6 6 5 5 5 5 4 4 5 5 5 5 5 4 4 4 4 5 5 5 6 6 7 7 7 6 5 5 5
11 11 11 11 11 11 10 10 9 8 7 8 8 7 6 6 5 4 4 4 4 3 4 4 5 4 5 5 5 5 5 5 6 6 6 6 7 7 7 7 6 5 5
11 11 11 11 11 11 10 9 9 9 8 8 8 7 7 6 5 5 4 4 4 4 4 4 4 4 4 5 5 6 5 6 6 6 6 6 7 7 7 7 7 6 6
10 10 10 10 10 10 10 9 9 9 8 8 8 7 7 6 5 5 5 5 4 4 4 4 4 4 4 5 5 6 6 7 7 7 7 7 7 8 8 8 8 7 7
9 8 9 9 9 9 9 9 8 8 8 7 7 6 6 5 5 5 5 5 5 5 5 5 5 5 5 6 6 6 7 7 7 7 7 7 8 8 9 8 8 8 8
8 7 7 8 7 7 8 8 8 8 8 7 6 6 6 5 5 5 5 5 5 4 5 5 5 5 6 7 7 7 6 6 7 7 7 8 9 9 10 9 9 8 8
7 7 7 7 7 7 7 8 8 8 7 6 7 7 6 6 5 4 4 4 4 5 5 5 4 6 6 6 6 7 8 8 7 8 9 9 9 9 9 10 10 9 9
6 6 6 6 6 6 6 7 6 6 6 6 6 6 5 5 5 4 4 4 4 4 4 4 4 5 6 6 6 7 8 9 9 8 9 9 9 9 9 10 10 10 10
5 5 5 6 6 5 5 5 4 4 4 5 5 5 5 5 4 4 4 4 4 4 4 4 4 5 5 6 6 7 7 8 8 9 9 9 9 9 9 9 9 10 10
5 4 5 5 5 5 4 4 4 3 3 3 4 4 4 4 4 4 4 3 4 5 4 4 4 5 6 6 7 7 7 8 8 9 9 9 9 9 9 10 9 10 10
Wind_Direction
92 90 94 101 116 131 136 136 137 130 125 119 118 123 117 113 112 122 125 124 124 123 114 104 99 86 73 74 88 95 103 112 115 159 185 200 206 199 202 203 223 228 236
97 92 87 97 113 123 136 135 136 133 123 125 124 127 123 120 121 129 130 127 124 120 115 108 99 86 78 61 83 95 109 113 129 153 189 206 206 222 234 224 226 224 236
103 101 96 113 121 124 135 135 133 130 121 123 128 128 122 124 131 134 135 130 124 116 114 105 98 87 69 53 57 59 62 80 87 116 207 217 240 252 246 231 232 231 239
94 103 111 126 124 120 127 134 138 133 125 122 118 127 127 131 137 142 143 142 131 121 113 101 92 75 64 50 25 10 358 341 8 334 281 263 253 257 245 230 231 229 230
86 98 113 127 127 124 121 127 132 132 124 122 119 126 131 132 135 137 135 137 125 118 107 95 85 58 44 34 13 359 352 3 356 314 280 257 249 250 246 239 232 228 230
95 99 103 115 124 128 126 130 135 131 124 119 113 119 125 121 124 132 121 114 109 109 100 92 82 62 42 31 21 26 35 16 4 350 279 224 224 233 241 237 239 234 236
89 94 99 113 123 125 124 130 134 132 129 122 118 115 113 112 119 125 114 115 109 101 94 90 81 70 48 42 40 43 35 37 27 31 27 147 232 230 239 229 240 238 241
77 84 95 103 115 118 117 123 133 133 129 120 114 110 122 118 123 127 115 120 112 101 94 82 76 54 48 45 42 37 34 44 51 44 38 31 317 238 224 242 252 252 268
81 86 96 103 107 109 114 124 129 130 129 128 119 108 108 101 101 112 120 117 118 107 90 81 70 60 55 48 43 48 45 43 39 42 41 52 110 181 199 241 274 282 297
85 89 97 100 102 104 103 113 121 124 125 127 120 117 106 94 89 94 117 112 106 93 79 75 70 61 51 46 51 46 36 35 37 39 37 42 54 32 346 305 301 292 302
86 90 95 94 91 94 96 101 104 111 119 115 110 113 112 101 92 103 95 99 89 86 79 72 62 55 53 56 52 37 32 35 33 30 29 19 8 356 356 356 340 328 333
80 86 86 85 87 94 95 93 95 103 108 110 110 105 94 93 93 96 88 86 78 79 76 63 59 61 62 60 52 42 33 31 31 33 25 15 13 11 4 349 338 333 329
81 84 83 82 83 89 92 93 91 95 98 99 97 104 100 100 100 96 88 84 80 74 69 68 68 65 56 52 48 45 34 30 35 35 29 28 29 24 11 360 352 342 337
80 80 80 78 82 85 88 94 97 98 98 98 95 100 103 106 104 95 87 85 76 63 60 62 68 68 55 48 46 45 37 32 44 39 34 32 30 24 10 2 346 333 326
77 77 76 75 77 81 82 89 97 103 101 97 92 92 101 105 106 98 88 78 73 65 59 61 64 61 50 45 40 41 36 36 44 33 29 19 11 7 3 355 342 327 319
73 74 74 75 73 73 79 87 90 99 98 93 90 92 100 105 102 95 85 77 68 65 63 61 60 48 49 49 43 37 27 33 33 28 27 24 16 9 360 353 345 332 324
72 72 72 73 72 72 77 83 85 86 87 91 91 91 95 100 97 90 77 73 70 66 65 64 57 47 46 45 38 32 24 25 25 24 24 24 16 8 2 359 347 337 332
74 73 73 74 74 73 77 79 80 81 84 91 92 92 91 94 94 87 72 67 67 70 71 65 55 47 40 36 27 25 25 22 23 23 19 17 11 5 1 360 352 342 335
74 74 74 74 73 73 77 79 77 82 87 89 88 88 90 91 85 75 69 69 70 74 71 62 51 42 33 26 23 23 21 21 19 15 9 5 4 359 358 358 354 344 333
74 74 70 69 71 72 74 77 78 81 84 87 84 85 82 81 75 70 69 70 75 73 63 55 43 34 28 24 20 19 19 15 12 11 4 360 359 359 359 0 358 354 344
68 68 67 66 69 72 71 71 76 77 77 77 76 77 74 72 68 65 70 69 71 62 54 46 48 43 34 27 21 16 16 11 10 9 8 6 1 0 359 355 353 351 347
63 62 62 63 64 69 71 68 70 70 71 72 67 67 62 56 58 58 55 62 58 52 46 44 44 36 30 28 25 16 12 9 6 10 10 9 6 360 356 353 354 351 346
58 58 58 59 63 69 71 71 70 69 69 67 63 60 59 52 52 52 51 47 42 40 34 34 31 22 20 22 22 16 13 11 8 8 5 2 358 354 353 353 352 350 347
50 53 56 55 59 70 76 72 67 62 57 52 54 57 54 51 48 46 43 37 28 21 17 17 12 13 14 13 14 13 13 14 11 8 3 359 357 356 355 353 352 352 350
42 50 55 55 57 68 71 67 61 56 49 45 49 49 45 43 42 40 38 35 20 9 1 357 359 10 17 14 9 4 2 3 3 2 359 358 356 352 350 349 348 350 350
26 45 56 58 58 57 53 55 48 41 35 36 38 36 27 25 25 25 24 13 7 3 357 357 2 359 357 357 355 351 349 349 350 350 351 353 353 351 350 349 345 344 344
Height
5890 5889 5890 5890 5890 5890 5891 5891 5891 5892 5893 5893 5893 5894 5894 5894 5894 5894 5894 5895 5894 5894 5894 5894 5894 5893 5893 5893 5892 5891 5890 5890 5890 5891 5891 5891 5891 5891 5891 5890 5890 5890 5890
5890 5890 5890 5891 5891 5891 5891 5892 5892 5893 5894 5894 5894 5895 5895 5895 5895 5895 5895 5895 5895 5895 5895 5895 5894 5894 5894 5893 5893 5892 5891 5891 5891 5891 5891 5891 5891 5890 5890 5890 5889 5889 5889
5890 5890 5891 5891 5891 5892 5892 5893 5893 5894 5894 5895 5895 5895 5895 5896 5896 5896 5896 5896 5896 5896 5895 5895 5895 5894 5894 5893 5893 5892 5892 5891 5891 5890 5890 5890 5890 5890 5889 5889 5889 5889 5889
5890 5890 5891 5891 5892 5892 5893 5893 5894 5895 5895 5896 5896 5896 5896 5896 5897 5897 5896 5896 5896 5896 5896 5896 5895 5895 5894 5894 5893 5892 5892 5891 5890 5890 5889 5889 5889 5889 5889 5888 5888 5888 5888
5890 5890 5891 5892 5892 5893 5894 5894 5895 5895 5896 5896 5897 5897 5897 5897 5897 5897 5897 5897 5897 5896 5896 5896 5896 5895 5895 5894 5893 5892 5891 5890 5890 5889 5889 5888 5888 5888 5888 5888 5888 5888 5888
5890 5890 5891 5892 5893 5893 5894 5895 5895 5896 5897 5897 5897 5897 5897 5898 5897 5897 5897 5897 5897 5897 5897 5897 5896 5896 5895 5894 5893 5892 5891 5890 5889 5888 5887 5886 5886 5886 5887 5887 5887 5887 5887
5891 5891 5892 5892 5893 5894 5895 5895 5896 5897 5897 5898 5898 5898 5898 5898 5898 5898 5898 5898 5898 5898 5898 5897 5897 5896 5896 5895 5894 5893 5892 5890 5889 5888 5887 5885 5886 5886 5886 5886 5886 5886 5886
5892 5892 5892 5893 5894 5894 5895 5896 5897 5897 5898 5898 5899 5899 5899 5899 5899 5899 5899 5899 5899 5898 5898 5898 5897 5897 5896 5896 5895 5893 5892 5890 5889 5888 5887 5886 5885 5885 5885 5885 5885 5885 5885
5892 5892 5893 5894 5895 5895 5896 5896 5897 5898 5898 5899 5899 5899 5900 5900 5899 5899 5899 5899 5899 5899 5899 5898 5897 5897 5897 5896 5895 5894 5892 5891 5890 5889 5887 5886 5884 5884 5885 5885 5885 5884 5884
5893 5893 5894 5895 5896 5896 5897 5897 5897 5898 5899 5899 5900 5900 5900 5900 5900 5900 5900 5900 5900 5900 5899 5899 5898 5898 5897 5896 5895 5894 5892 5891 5890 5889 5888 5886 5885 5885 5885 5884 5884 5884 5883
5895 5895 5896 5896 5897 5897 5897 5897 5898 5898 5899 5900 5900 5900 5901 5901 5901 5901 5901 5900 5900 5900 5900 5899 5898 5898 5897 5897 5895 5894 5893 5892 5890 5889 5888 5887 5886 5885 5885 5884 5884 5883 5882
5896 5897 5897 5898 5898 5898 5898 5898 5899 5899 5900 5900 5901 5901 5901 5901 5901 5901 5901 5901 5901 5900 5900 5900 5899 5899 5898 5897 5896 5895 5893 5892 5891 5889 5888 5887 5886 5886 5885 5884 5883 5882 5882
5898 5898 5899 5899 5899 5899 5899 5899 5900 5900 5900 5901 5901 5901 5902 5902 5902 5902 5902 5902 5901 5901 5901 5900 5900 5899 5898 5897 5896 5895 5894 5893 5891 5890 5888 5887 5886 5885 5884 5884 5883 5882 5881
5900 5900 5900 5900 5900 5900 5900 5900 5900 5901 5901 5902 5902 5902 5902 5902 5903 5903 5903 5902 5902 5902 5901 5900 5900 5899 5898 5898 5897 5896 5894 5893 5892 5890 5889 5888 5886 5885 5884 5883 5882 5881 5880
5902 5902 5902 5902 5901 5901 5901 5901 5902 5902 5902 5903 5903 5903 5903 5903 5904 5904 5903 5903 5903 5902 5901 5901 5900 5900 5899 5898 5897 5896 5894 5893 5892 5891 5890 5888 5887 5885 5884 5883 5882 5881 5880
5905 5904 5904 5904 5903 5903 5902 5902 5903 5903 5903 5903 5904 5903 5903 5904 5904 5904 5904 5904 5903 5903 5902 5901 5901 5900 5899 5898 5897 5896 5895 5893 5892 5891 5890 5889 5887 5886 5884 5882 5881 5880 5879
5907 5906 5906 5905 5905 5904 5904 5904 5904 5904 5904 5904 5904 5904 5904 5905 5905 5905 5904 5904 5904 5903 5903 5902 5902 5901 5900 5899 5898 5897 5895 5894 5893 5891 5890 5889 5887 5885 5884 5882 5881 5879 5878
5909 5908 5908 5907 5907 5906 5906 5906 5905 5905 5905 5905 5905 5905 5905 5906 5906 5905 5905 5905 5904 5904 5904 5903 5902 5901 5901 5899 5898 5897 5896 5894 5893 5891 5890 5889 5887 5885 5884 5882 5880 5878 5877
5911 5910 5910 5909 5909 5908 5908 5907 5907 5907 5907 5907 5907 5907 5906 5907 5906 5906 5906 5906 5905 5905 5904 5903 5903 5902 5901 5899 5898 5897 5896 5894 5893 5891 5890 5888 5887 5885 5883 5881 5879 5878 5876
5913 5912 5912 5911 5911 5910 5909 5909 5909 5908 5908 5908 5908 5908 5908 5908 5907 5907 5907 5906 5906 5905 5904 5904 5903 5902 5901 5899 5898 5897 5895 5894 5893 5891 5889 5888 5886 5884 5883 5881 5879 5877 5875
5914 5913 5913 5913 5912 5912 5911 5910 5910 5910 5909 5909 5909 5909 5908 5908 5908 5908 5907 5906 5906 5905 5904 5904 5903 5902 5901 5899 5898 5897 5896 5894 5893 5891 5889 5888 5886 5884 5882 5880 5878 5876 5874
5915 5914 5914 5913 5913 5913 5912 5912 5911 5911 5910 5910 5910 5910 5909 5909 5908 5908 5907 5907 5906 5905 5905 5904 5903 5902 5901 5899 5898 5897 5896 5895 5893 5891 5889 5887 5885 5883 5882 5879 5877 5875 5873
5916 5915 5915 5914 5914 5913 5913 5913 5913 5912 5912 5911 5911 5910 5910 5909 5908 5908 5908 5907 5906 5905 5904 5904 5902 5901 5900 5899 5898 5897 5896 5894 5893 5891 5889 5887 5885 5883 5881 5879 5876 5874 5872
5917 5916 5916 5915 5915 5914 5914 5914 5914 5913 5913 5912 5911 5911 5910 5909 5909 5908 5907 5907 5906 5905 5904 5903 5902 5901 5900 5899 5898 5897 5896 5894 5892 5890 5888 5886 5884 5882 5880 5878 5876 5873 5871
5918 5917 5916 5916 5915 5915 5914 5914 5914 5913 5913 5912 5911 5910 5910 5909 5909 5908 5907 5906 5905 5905 5904 5903 5902 5901 5899 5898 5897 5896 5895 5893 5891 5889 5887 5885 5883 5881 5879 5877 5875 5872 5870
5918 5917 5916 5916 5915 5915 5915 5914 5914 5913 5913 5912 5911 5910 5910 5909 5908 5907 5906 5906 5905 5904 5903 5902 5901 5900 5899 5898 5896 5895 5894 5892 5890 5888 5886 5884 5882 5880 5878 5876 5874 5871 5869